Vancouver Int'l Airport, British Columbia

Past 24 Hour Conditions

Date / Time
(PDT)
Conditions Temp
(°C)
Humidity
(%)
Dew Point
(°C)
Wind
(km/h)
Pressure
(kPa)
Visibility
(km)
24 October 2014
4:00 Mostly Cloudy 9 90 8 ENE 8 101.7 24
3:00 Mostly Cloudy 10 90 8 ENE 11 101.7 24
2:00 Mostly Cloudy 9 92 8 NE 11 101.7 24
1:00 Light Rain 9 93 8 ENE 10 101.6 24
00:00 Light Rain 9 93 8 E 14 101.6 19
23 October 2014
23:00 Mostly Cloudy 9 92 8 ENE 14 101.5 24
22:00 Mostly Cloudy 8   90 6 E 13 101.4 24
21:00 Partly Cloudy 8   87 6 E 10 101.4 24
20:00 Mostly Cloudy 10 82 7 SE 4 101.3 24
19:00 Mostly Cloudy 10 80 7 S 12 101.2 24
18:00 Mostly Cloudy 11 79 8 SSW 21 101.1 24
17:00 Mostly Cloudy 11 81 8 S 14 101.0 24
16:00 Mostly Cloudy 12   79 8 S 24 100.9 24
15:00 Mostly Cloudy 12   80 9 SSE 16 100.8 24
14:00 Mostly Cloudy 12   81 9 SSE 31 100.8 24
13:00 Light Rain 12   92 10 SE 20 100.7 24
12:00 Light Rain 11 93 10 SE 19 100.7 24
11:00 Light Rain 11 91 10 E 11 100.6 24
10:00 Light Rain 10 91 9 NE 8 100.6 24
9:00 Heavy Rain 10 93 9 E 4 100.5 19
8:00 Thunderstorm with Heavy Rain 10 95 9 N 6 100.6 13
7:00 Light Rain 10 92 9 E 16 100.5 19
6:00 Light Rain 10 92 9 E 16 100.5 24
5:00 Mostly Cloudy 10 91 9 E 13 100.5 24
4:00 Mostly Cloudy 10 87 8 ENE 12 100.5 24
N/A Not available
↑ Highest temperature
↓ Lowest temperature

If you require additional historical weather information, please visit Climate Data Online.

Date modified: